Regional Weather Roundup
Issued by NWS

Home | Current Version | Previous Version | Graphics & Text | Print | Product List | Glossary On
Versions: 1 2 3 4 5 6 7 8 9 10 11 12 13 14 15 16 17 18 19 20 21 22 23 24 25 26 27 28 29 30 31 32 33 34 35 36 37 38 39 40 41 42 43 44 45 46 47 48 49 50
000
ASUS45 KCYS 311210
RWRWY

WYOMING REGIONAL WEATHER ROUNDUP
NATIONAL WEATHER SERVICE CHEYENNE WY
600 AM MDT FRI JUL 31 2015

NOTE:  "FAIR" INDICATES FEW OR NO CLOUDS BELOW 12,000 FEET
WITH NO SIGNIFICANT WEATHER AND/OR OBSTRUCTIONS TO VISIBILITY.

WYZ001-311300-
...YELLOWSTONE NATIONAL PARK...

CITY           SKY/WX    TMP DP  RH WIND       PRES   REMARKS
LK YELLOWSTONE   N/A     37  33  85 CALM      30.53S
6HR MIN TEMP:  37; 6HR MAX TEMP:  47;

W YELLOWSTONE  NOT AVBL

$$
WYZ002>013-054>058-071-098>099-311300-
...NORTHERN WYOMING...

CITY           SKY/WX    TMP DP  RH WIND       PRES   REMARKS
JACKSON        CLEAR     43  36  75 N3        30.44R
CODY           CLEAR     61  34  36 S6        30.32R
GREYBULL       CLEAR     56  40  55 CALM      30.25R
6HR MIN TEMP:  54; 6HR MAX TEMP:  71;

WORLAND        CLEAR     53  29  39 SE3       30.27R
6HR MIN TEMP:  50; 6HR MAX TEMP:  65;

SHERIDAN       CLEAR     49  42  77 CALM      30.25S
6HR MIN TEMP:  48; 6HR MAX TEMP:  59;

BUFFALO        CLEAR     66  34  30 W6        30.31S
6HR MIN TEMP:  58; 6HR MAX TEMP:  67;

GILLETTE       CLEAR     59  44  57 S5        30.27S
6HR MIN TEMP:  51; 6HR MAX TEMP:  62;

HULETT         FAIR      54  43  66 SW7       30.28S
NEWCASTLE      FAIR      59  41  51 NE7       30.28S

$$
WYZ014>020-022>026-101>103-311300-
...CENTRAL WYOMING...

CITY           SKY/WX    TMP DP  RH WIND       PRES   REMARKS
BIG PINEY      PTCLDY    44  29  55 CALM      30.45S
6HR MIN TEMP:  39; 6HR MAX TEMP:  54;

PINEDALE       PTCLDY    36  32  87 W7        30.46R WCI  30
DUBOIS         FAIR      45  30  57 NW12      30.47S
LANDER         CLEAR     62  26  25 W10       30.34S
6HR MIN TEMP:  55; 6HR MAX TEMP:  67;

RIVERTON       CLEAR     54  32  43 NW9       30.35R
6HR MIN TEMP:  53; 6HR MAX TEMP:  70;

CASPER         CLEAR     51  34  52 SW3       30.34S
6HR MIN TEMP:  44; 6HR MAX TEMP:  65;

DOUGLAS        CLEAR     51  43  74 NW5       30.32R
6HR MIN TEMP:  50; 6HR MAX TEMP:  63;


$$
WYZ021-027>030-104>119-311300-
...SOUTHERN WYOMING...

CITY           SKY/WX    TMP DP  RH WIND       PRES   REMARKS
EVANSTON       PTCLDY    51  24  34 SE5       30.43F
6HR MIN TEMP:  50; 6HR MAX TEMP:  65;

KEMMERER       CLEAR     48  28  46 N14       30.45S
FORT BRIDGER   CLEAR     57  25  28 W7        30.45S
ROCK SPRINGS   MOCLDY    56  19  23 CALM      30.41S
6HR MIN TEMP:  54; 6HR MAX TEMP:  68;

DIXON          FAIR      48  30  49 E10       30.41S
RAWLINS        CLEAR     45  33  63 N5        30.43R
6HR MIN TEMP:  43; 6HR MAX TEMP:  61;

SARATOGA       FAIR      41  32  70 N3        30.45S
LARAMIE        CLEAR     44  41  89 SW5       30.46R
6HR MIN TEMP:  44; 6HR MAX TEMP:  62;

CHEYENNE       CLEAR     55  50  83 W9        30.38R
6HR MIN TEMP:  54; 6HR MAX TEMP:  62;

TORRINGTON     CLEAR     56  51  84 CALM      30.26S
6HR MIN TEMP:  56; 6HR MAX TEMP:  65;

PINE BLUFFS    FAIR      50  48  93 CALM      30.33S

$$


USA.gov is the U.S. government's official web portal to all federal, state and local government web resources and services.